{"data":{"norad_id":53445,"intl_designator":"2022-098B","name":"JILIN-1 GAOFEN 03D09","alt_names":[],"object_type":"PAYLOAD","status":"ACTIVE","operator":null,"country":"PRC","launch_date":"2022-08-10","launch_site_code":"TAISC","launch_vehicle":null,"mission":null,"orbit_class":"UNKNOWN","rcs_meters":null,"size_class":null,"mass_kg":null,"dimensions":null,"purposes":[],"wikipedia_slug":null,"has_3d_model":false,"image_url":null,"decayed_at":null,"tle_current":{"epoch":"2026-09-20T23:02:22.285824Z","epoch_age_seconds":103907,"freshness":"FRESH","line1":"1 53445U 22098B   26263.95998016  .00137254  00000+0  61812-3 0  9990","line2":"2 53445  97.5691  41.9985 0001785 293.1919  66.9162 15.83688991229697","mean_motion":15.83688991,"eccentricity":0.0001785,"inclination_deg":97.5691,"raan_deg":41.9985,"arg_perigee_deg":293.1919,"mean_anomaly_deg":66.9162,"bstar":0.00061812,"rev_number":22969,"period_min":90.926943874929,"perigee_km":318.82314468826,"apogee_km":321.21438629654,"semimajor_km":6698.1557654924,"source":"CELESTRAK","updated_at":"2026-09-21T09:00:09.037524Z"}}}